Weather in Bora-Bora

French Polynesia     16°29′56″S   151°44′17″W
temp.,
°C
wind,
m/s
gust,
m/s
humid.,
%
clouds,
%
prec.,
mm/h
press.,
hPa
HPBL,
m
8 august, mon
mon823:00+24se12127082 0.0 10151318
02:00+24se101070100 0.1 10131238
05:00+24se996989 0.1 10131310
08:00+24se9969100 0.4 10151219
11:00+25se886275 0.1 10151303
14:00+25se8861100 0.1 10131291
17:00+25se8865100 0.0 10131231
20:00+25se9865100 0.0 10141380
9 august, tue
tue923:00+25se7762100 0.0 10141387
02:00+25ese5563100 0.0 10131098
05:00+25ese4464100 0.0 10131094
08:00+25ese4465100 0.0 10141098
11:00+25ene4467100 0.2 1014975
14:00+24nne4472100 0.7 1013637
17:00+24ne437387 0.1 1013779
20:00+24nne447192 0.1 10151012
10 august, wed
wed1023:00+24nne347073 0.1 1014756
02:00+24nnw447371 0.1 1013587
05:00+24nw22710 0.0 1014692
08:00+24n11700 0.1 1016625
11:00+25n237167 0.3 1016739
14:00+25nne33723 0.4 1015710
17:00+25ne22720 1.0 1015395
20:00+25ne44700 1.5 1017556
11 august, thu
thu1123:00+25ne557382 0.0 1017861
02:00+25ne45744 0.0 1016793
05:00+25ne45740 0.3 1016825
08:00+26ene56700 0.3 1018964
11:00+26ene56749 0.0 1018835
14:00+25ene56781 0.3 1016681
17:00+26e677815 0.5 1016769
20:00+26e77789 0.6 1018799
12 august, fri
fri1223:00+26e68787 0.1 1018849
02:00+26e78785 0.3 1017855
05:00+26e78767 0.1 1016959
08:00+26e89785 0.3 1018904
11:00+26ene89745 0.1 10181017
14:00+26e88695 0.2 10161051
17:00+26e78705 0.0 1015985
20:00+26e79723 0.0 10171132